Weather History for Plymouth, MA

Change the Weather History Date:

Monday, June 9, 2014

  Actual Average Record
Temperature  
Mean Temperature 65 °F -  
Max Temperature 75 °F 74 °F 95 °F (1984)
Min Temperature 55 °F 53 °F 34 °F (1997)
Growing Degree Days 15 (Base 50)    
Moisture  
Dew Point 55 °F    
Average Humidity 68    
Maximum Humidity 90    
Minimum Humidity 48    
Precipitation  
Precipitation 0.00 in - - ()
Sea Level Pressure  
Sea Level Pressure 29.97 in    
Wind  
Wind Speed 4 mph (SW)    
Max Wind Speed 13 mph    
Max Gust Speed -    
Visibility 10 miles    
Events      
Averages and records for this station are not official NWS values.
T = Trace of Precipitation, MM = Missing Value Source: NWS Daily Summary

Daily Weather History Graph

Daily Weather History Graph

Search for Another Location

Airport:

Trip Planner

Search our weather history database for the weather conditions in past years. The results will help you decide how hot, cold, wet, or windy it might be!

Date:

Astronomy

Jun. 09, 2014 Rise Set
Actual Time 5:07 AM EDT 8:17 PM EDT
Civil Twilight 4:33 AM EDT 8:51 PM EDT
Nautical Twilight 3:49 AM EDT 9:34 PM EDT
Astronomical Twilight 2:57 AM EDT 10:27 PM EDT
Moon 4:31 PM EDT (6/9) 2:36 AM EDT (6/9)
Length of Visible Light 16h 17m
Length of Day
15h 09m
Waxing Gibbous, 85% of the Moon is Illuminated
Jun 9
Waxing Gibbous
Jun 13
Full
Jun 19
Last Quarter
Jun 27
New
Jul 5
First Quarter

Hourly Weather History & Observations

Time (EDT) Temp. Dew Point Humidity Pressure Visibility Wind Dir Wind Speed Gust Speed Precip Events Conditions
12:52 AM 61.0 °F 55.9 °F 83% 29.92 in 10.0 mi Calm Calm - N/A   Clear
1:52 AM 59.0 °F 55.0 °F 87% 29.92 in 10.0 mi Calm Calm - N/A   Clear
2:52 AM 59.0 °F 55.0 °F 87% 29.93 in 10.0 mi SW 3.5 mph - N/A   Clear
3:52 AM 57.0 °F 54.0 °F 89% 29.93 in 10.0 mi SSW 3.5 mph - N/A   Clear
4:52 AM 59.0 °F 54.0 °F 83% 29.94 in 10.0 mi SW 3.5 mph - N/A   Clear
5:52 AM 55.9 °F 53.1 °F 90% 29.95 in 10.0 mi Calm Calm - N/A   Clear
6:52 AM 63.0 °F 55.9 °F 78% 29.96 in 10.0 mi SW 3.5 mph - N/A   Clear
7:52 AM 69.1 °F 55.9 °F 63% 29.97 in 10.0 mi SW 9.2 mph - N/A   Clear
8:52 AM 73.9 °F 53.1 °F 48% 29.97 in 10.0 mi WSW 12.7 mph - N/A   Clear
9:52 AM 73.0 °F 54.0 °F 51% 29.97 in 10.0 mi SW 8.1 mph - N/A   Clear
11:52 AM 73.9 °F 55.0 °F 52% 29.98 in 10.0 mi WSW 9.2 mph - N/A   Mostly Cloudy
12:52 PM 75.0 °F 54.0 °F 48% 29.98 in 10.0 mi West 8.1 mph - N/A   Mostly Cloudy
2:52 PM 73.0 °F 53.1 °F 49% 29.98 in 10.0 mi SSW 6.9 mph - N/A   Overcast
3:52 PM 72.0 °F 51.1 °F 48% 29.97 in 10.0 mi SSW 6.9 mph - N/A   Overcast
4:52 PM 70.0 °F 55.9 °F 61% 29.98 in 10.0 mi SSW 9.2 mph - N/A   Overcast
5:52 PM 69.1 °F 55.0 °F 61% 29.99 in 10.0 mi SSW 8.1 mph - N/A   Overcast
6:52 PM 69.1 °F 55.0 °F 61% 30.00 in 10.0 mi SW 6.9 mph - N/A   Mostly Cloudy
7:52 PM 66.9 °F 52.0 °F 59% 30.00 in 10.0 mi WSW 8.1 mph - N/A   Clear
8:52 PM 64.9 °F 52.0 °F 63% 30.00 in 10.0 mi SW 5.8 mph - N/A   Clear
9:52 PM 64.0 °F 55.0 °F 73% 30.01 in 10.0 mi SSW 4.6 mph - N/A   Overcast
10:52 PM 64.0 °F 55.9 °F 75% 30.00 in 10.0 mi SSW 4.6 mph - N/A   Overcast
11:48 PM 64.4 °F 57.2 °F 77% 29.99 in 10.0 mi SSW 3.5 mph - N/A   Overcast
11:52 PM 64.0 °F 57.0 °F 78% 29.99 in 10.0 mi SSW 3.5 mph - N/A   Overcast